GEFSCGP_850_meantemp_138.txt.gz
Temperature
21 19 19 20 20 22 22 22 21 22 23 22 21 21 20 19 19 19 19 18 18 19 19 18 18 18 18 18 17 18 18 17 17 17 17 17 17 17 17 17 17 16 16 16
20 20 21 21 21 22 22 21 21 22 23 23 21 21 20 19 19 19 18 18 18 18 18 18 18 18 18 18 17 17 17 17 17 17 17 17 17 17 17 16 16 16 16 16
20 21 22 22 22 22 22 21 21 21 22 21 21 21 20 19 19 19 19 18 18 18 18 18 18 17 17 17 17 17 17 17 17 17 17 17 16 16 16 16 16 16 16 16
20 21 23 23 22 22 21 22 22 22 21 19 21 19 20 19 18 18 18 18 18 18 18 18 18 17 17 17 17 17 17 17 17 17 17 17 16 16 16 16 16 16 16 16
21 22 22 22 23 23 22 22 22 21 20 19 19 19 19 19 18 18 18 18 18 18 18 18 18 18 18 17 17 17 17 17 17 17 17 17 17 17 16 16 16 16 16 15
21 23 23 23 24 24 23 21 20 17 17 19 20 19 19 18 18 18 18 18 18 18 17 17 18 17 17 17 17 17 17 17 17 16 16 17 17 16 16 16 16 16 16 15
22 22 23 23 23 23 22 20 19 19 18 18 19 19 18 19 19 19 18 18 18 18 18 17 17 17 17 17 17 17 17 17 17 16 16 16 16 16 16 16 16 16 16 15
20 21 22 22 22 22 21 20 19 19 19 18 18 18 19 20 19 19 19 19 18 18 18 18 18 18 18 17 17 17 17 17 17 17 16 16 16 16 16 16 16 16 16 16
19 20 22 23 23 22 21 19 19 18 18 18 18 18 19 19 19 18 18 18 18 18 18 18 18 18 18 18 18 17 17 17 17 17 17 17 16 16 16 16 16 16 16 15
20 20 22 22 22 22 21 18 16 17 18 19 19 19 19 20 19 18 17 17 18 18 18 18 19 18 18 18 18 18 17 17 17 17 17 17 17 16 16 16 16 16 16 15
20 20 20 21 21 21 20 19 17 15 17 18 18 19 19 19 19 18 17 18 18 18 19 19 19 19 18 18 18 18 17 17 17 17 17 17 17 16 16 16 16 16 16 15
18 17 18 19 20 20 20 19 17 18 17 16 17 18 20 19 18 17 18 18 19 19 19 19 19 19 18 18 18 18 17 17 17 17 17 17 17 16 16 16 16 16 15 15
18 17 17 18 19 19 19 19 17 16 15 15 17 19 20 18 18 18 18 19 19 19 19 19 19 19 19 18 18 18 18 18 17 17 17 17 16 16 16 16 16 16 15 15
17 16 17 18 18 18 19 19 18 16 16 16 17 18 19 19 18 18 18 19 19 19 19 19 19 19 19 19 19 18 18 18 17 17 17 17 17 17 17 16 16 16 15 15
17 16 17 17 18 18 18 19 18 18 17 17 18 18 19 18 18 18 19 19 19 19 19 19 19 19 19 19 19 19 18 18 18 17 17 17 17 17 17 16 16 16 15 15
15 16 17 17 18 18 18 18 18 18 18 18 18 18 18 18 18 18 18 18 18 19 19 19 19 20 20 20 19 19 19 18 18 18 18 17 17 17 17 16 16 16 16 15
14 15 15 15 17 18 17 18 18 18 18 18 18 18 17 17 17 17 18 18 18 19 20 20 20 20 20 20 20 20 19 19 18 18 18 18 17 17 17 17 16 16 16 15
13 13 13 14 16 16 17 17 17 17 17 17 17 17 16 16 17 18 18 18 18 19 20 20 20 21 21 20 20 20 19 19 18 18 18 18 17 17 17 17 16 16 16 15
12 13 13 13 15 16 17 17 16 16 16 16 16 16 16 16 17 18 18 18 18 19 20 21 21 21 21 21 20 20 19 19 19 18 18 18 18 17 17 17 17 16 16 16
12 12 12 13 15 15 16 16 16 16 16 16 15 15 15 15 16 16 18 18 19 20 20 21 21 21 21 21 20 19 19 19 19 19 19 18 18 18 17 17 17 17 16 16
13 13 13 13 14 15 15 15 16 16 16 15 15 14 14 14 15 16 17 17 18 19 20 20 20 20 20 20 20 20 20 20 20 19 19 18 18 18 17 17 17 17 16 16
13 13 13 13 14 15 15 15 15 15 15 15 14 15 14 15 15 15 16 17 18 18 19 20 20 20 20 20 20 20 20 20 19 19 18 18 18 18 17 17 16 16 16 15
12 12 12 13 13 14 14 14 15 15 14 14 14 15 15 14 14 15 15 16 17 17 18 19 19 19 19 19 19 19 20 19 19 18 18 18 17 17 17 17 16 16 16 15
13 12 12 12 13 13 14 14 14 14 14 14 14 14 14 14 14 14 15 15 16 17 17 17 18 18 18 18 18 19 19 18 18 18 17 17 17 16 16 16 16 15 15 15
12 12 12 12 13 13 14 14 14 14 14 14 14 14 14 14 14 14 14 14 15 15 16 16 16 17 17 17 17 17 17 17 17 17 17 17 16 16 15 15 15 15 15 15
11 11 12 12 12 12 13 13 13 13 13 13 13 13 13 13 13 13 13 13 14 14 14 15 15 15 15 16 16 16 16 16 16 16 16 16 15 15 15 15 14 14 14 14

GEFSCGP_850_meantemp_144.txt.gz
Temperature
26 27 27 28 29 29 29 29 29 29 30 29 29 29 30 28 27 26 25 24 23 22 20 19 18 17 17 17 17 17 17 17 17 17 17 17 17 17 17 17 17 17 17 17
26 27 28 29 28 28 28 28 29 29 29 29 29 29 29 28 27 26 25 24 23 22 20 19 18 17 17 17 17 17 17 17 17 17 17 17 17 17 17 17 17 17 17 17
27 28 29 28 27 27 28 28 28 28 29 29 29 29 29 28 26 25 25 24 23 22 20 19 18 18 17 17 17 17 17 17 17 17 17 16 16 17 16 16 16 16 16 16
27 28 27 27 27 27 28 29 28 28 28 29 28 28 29 29 27 27 25 24 23 22 21 19 18 18 17 17 17 17 17 17 17 17 17 17 17 16 17 17 16 16 16 16
27 28 27 27 28 28 28 28 28 28 28 28 29 28 29 29 28 28 27 25 24 22 21 20 19 18 18 17 17 17 17 17 17 17 17 17 16 16 16 16 16 16 16 16
28 28 28 28 29 28 28 28 28 28 28 27 28 28 28 30 29 28 27 25 24 22 21 20 19 18 17 17 17 17 17 17 17 17 17 17 16 16 16 16 16 16 16 16
27 28 28 28 28 28 28 27 27 27 27 27 28 27 28 30 29 28 27 26 24 22 21 20 19 18 17 17 17 17 17 17 17 17 16 17 16 16 16 16 16 16 16 16
26 27 28 28 28 28 28 28 27 26 27 28 27 27 29 29 28 27 26 25 24 22 21 20 19 18 18 17 17 17 16 17 17 16 16 16 16 16 16 16 16 16 16 16
27 27 28 28 28 28 28 28 29 28 27 27 28 28 29 29 28 27 26 25 24 23 21 20 20 19 18 17 17 17 16 16 17 17 16 16 16 16 16 16 16 16 16 16
28 27 27 27 28 28 28 28 28 27 26 26 27 28 28 28 28 28 27 26 24 23 22 21 20 19 18 18 17 17 16 16 16 16 16 16 16 16 16 16 16 16 16 16
28 26 27 27 27 27 27 27 27 27 27 26 26 27 29 28 28 27 27 26 24 23 22 21 20 19 18 18 17 17 17 16 16 16 16 16 16 16 16 16 16 16 16 16
27 27 27 27 27 27 27 27 27 26 26 26 26 27 28 28 27 27 27 25 24 23 22 21 20 19 18 18 17 17 17 17 16 16 16 16 16 16 16 16 16 16 16 16
26 25 25 26 26 26 26 27 27 27 26 26 26 27 28 27 27 26 26 25 24 23 22 21 20 19 18 18 17 17 17 17 16 16 16 16 16 16 16 16 16 16 16 16
25 25 25 25 26 26 26 26 26 26 26 26 26 27 28 27 26 26 25 24 24 22 22 21 20 19 18 18 18 17 17 17 17 16 16 16 16 17 16 16 16 16 16 16
25 25 25 26 26 26 26 26 26 26 26 26 26 27 27 26 25 25 24 24 23 23 22 21 20 19 18 18 18 17 17 17 16 16 16 16 17 17 16 16 16 16 16 16
24 24 25 25 25 25 25 25 25 25 25 26 26 26 26 25 24 24 23 23 23 23 22 21 20 19 19 18 18 18 17 17 17 16 17 17 17 16 16 16 16 16 16 15
24 23 23 24 25 24 24 25 25 25 25 25 25 25 24 24 23 22 22 22 22 22 21 21 20 20 19 18 18 18 18 17 17 17 17 16 16 16 16 16 16 16 16 16
22 22 23 24 23 22 24 24 24 24 24 24 24 24 23 22 21 21 21 21 21 20 20 20 20 19 19 18 18 18 18 17 17 17 17 16 16 16 16 16 16 16 16 16
22 22 22 23 22 23 23 23 22 22 22 23 22 22 22 21 21 22 20 19 19 19 19 19 19 20 19 19 18 18 18 18 17 17 17 17 17 17 16 16 16 16 16 16
21 21 22 21 21 22 22 22 21 22 21 21 21 21 21 21 22 22 19 18 18 18 18 18 19 19 19 19 18 18 18 18 18 18 17 17 17 17 17 17 17 16 16 16
21 20 21 21 21 21 21 21 21 20 20 19 19 19 20 20 20 18 17 17 17 17 17 18 18 19 19 18 18 18 18 18 18 18 17 17 17 17 17 17 16 16 16 16
21 20 20 20 20 20 20 20 20 19 18 18 18 18 18 18 17 17 16 16 16 16 17 17 18 18 18 18 18 18 18 18 18 17 17 17 17 17 17 16 16 16 16 16
20 20 20 20 19 19 18 18 17 16 17 16 17 16 17 17 16 16 15 15 15 15 16 16 17 17 17 17 17 17 17 17 17 17 17 16 16 16 16 16 16 15 15 15
19 19 19 18 18 18 17 16 16 16 16 16 15 15 15 15 15 15 14 14 14 14 14 15 15 16 16 16 17 17 17 17 17 16 16 16 16 16 16 15 15 15 15 15
18 18 18 18 18 17 16 15 15 15 15 14 14 14 14 14 14 13 13 13 13 13 13 14 14 15 15 15 16 16 16 16 16 16 16 16 15 15 15 15 15 15 15 15
18 17 17 17 17 17 15 14 14 14 14 13 13 13 13 13 12 12 12 12 12 12 12 13 13 13 13 14 14 15 15 15 15 15 15 15 15 14 14 14 14 14 14 14

GEFSCGP_850_meantemp_150.txt.gz
Temperature
29 28 28 29 31 31 31 31 31 32 33 33 32 32 32 32 32 31 30 29 27 26 24 23 22 21 20 19 19 18 18 18 18 18 18 18 18 18 18 18 18 18 18 18
28 28 30 31 32 32 31 31 31 32 33 33 32 32 32 32 32 31 30 29 28 26 24 22 21 20 20 19 18 18 18 18 18 18 18 18 18 18 18 18 18 18 18 18
28 30 31 31 31 31 31 31 31 31 32 32 31 31 31 31 31 31 30 29 28 26 24 22 21 20 19 19 18 18 18 18 18 18 17 17 17 17 17 17 18 18 18 18
29 31 31 31 31 31 30 32 32 31 31 31 31 29 29 30 29 30 30 29 28 26 24 22 21 20 19 19 18 18 18 18 18 18 17 17 17 17 18 18 18 17 17 18
29 31 31 30 31 31 31 32 32 31 30 30 31 29 29 29 28 29 29 29 28 26 24 23 21 20 20 19 18 18 18 18 18 17 17 17 17 17 18 17 17 17 17 17
31 32 32 31 32 32 32 31 31 30 30 28 29 28 28 28 28 29 29 29 28 26 25 23 22 20 20 19 19 18 18 18 18 17 17 17 17 17 17 17 17 17 17 17
29 31 32 32 31 31 31 30 28 27 27 27 28 28 29 30 30 29 29 29 28 26 25 23 22 21 20 19 19 18 18 18 17 17 17 17 17 17 17 17 17 17 17 17
28 29 31 32 31 30 30 30 27 26 25 26 26 26 29 31 30 30 29 28 27 26 25 23 22 21 20 19 19 18 18 18 17 17 17 17 17 17 17 18 17 17 17 17
29 29 31 32 32 31 30 30 30 29 27 26 26 26 29 30 30 30 29 28 27 26 25 24 22 21 20 20 19 18 18 18 18 17 17 17 17 17 17 17 17 17 17 17
30 29 30 32 32 31 31 31 30 28 26 25 26 26 26 27 29 29 29 28 27 26 25 24 23 22 21 20 19 18 18 18 18 17 17 17 17 17 17 17 17 17 17 17
30 29 29 30 30 30 30 30 29 29 28 27 25 25 26 26 27 28 29 28 28 26 25 24 23 22 21 20 19 18 18 17 17 17 17 17 17 17 17 17 17 17 17 17
30 29 28 29 31 31 30 30 29 27 27 27 26 26 27 26 26 28 28 28 27 26 26 24 23 22 21 20 19 19 18 18 17 17 17 17 17 17 17 17 17 17 17 17
29 28 27 27 28 29 29 29 29 29 28 27 27 26 27 26 26 27 27 27 27 26 25 24 23 22 21 20 20 19 18 18 17 17 17 17 17 17 17 17 17 17 17 17
29 28 27 26 26 26 27 28 29 28 28 27 27 27 26 26 26 26 26 26 26 26 25 24 23 22 21 20 20 19 19 18 18 17 17 17 17 17 17 17 17 17 16 16
29 27 27 27 27 27 27 28 28 28 28 27 27 26 26 25 25 25 26 26 26 25 25 24 23 22 21 20 20 19 19 18 18 17 17 17 17 17 17 17 17 17 16 16
27 26 26 26 27 27 27 27 28 28 28 28 27 26 26 26 26 25 26 26 25 25 24 23 22 22 21 21 20 19 19 19 18 18 18 17 17 17 17 17 17 16 16 16
27 26 25 25 26 26 25 27 27 27 28 27 25 25 25 25 25 25 25 25 24 23 23 23 22 21 21 20 20 20 19 19 18 18 18 17 17 17 17 17 17 16 16 16
25 24 24 25 25 23 25 27 27 26 26 26 26 25 25 24 24 24 24 23 23 22 22 22 22 21 21 20 20 20 19 19 18 18 18 18 17 17 17 17 17 17 17 16
25 24 24 24 23 24 25 26 26 25 24 25 24 24 24 23 23 22 22 21 21 21 21 21 21 21 20 20 20 19 19 19 18 18 18 18 17 17 17 17 17 17 16 16
25 24 23 23 22 22 22 25 25 25 23 23 23 23 22 22 22 21 20 20 20 20 20 20 20 20 20 20 20 19 19 19 19 18 18 18 18 17 17 17 17 17 16 16
23 23 23 22 22 22 22 24 25 22 21 21 21 21 21 20 20 19 19 19 19 19 19 19 19 19 19 19 19 19 19 19 19 19 18 18 18 17 17 17 17 17 16 16
23 22 22 22 21 20 21 21 21 20 20 20 20 20 19 19 18 18 17 17 17 17 18 18 18 18 19 19 19 19 19 19 19 18 18 18 18 17 17 17 17 16 16 16
22 22 22 21 20 19 19 18 18 19 19 19 19 18 18 18 17 16 16 16 16 16 16 17 17 17 18 18 18 18 18 18 18 18 18 18 17 17 17 17 16 16 16 15
20 21 21 20 19 19 18 18 18 18 18 18 18 17 17 16 16 15 15 15 15 15 15 15 16 16 16 17 17 17 17 18 18 18 17 17 17 17 16 16 16 16 15 15
20 20 20 19 19 19 18 17 17 17 17 17 16 16 15 15 15 14 14 14 13 14 14 14 14 14 15 15 16 16 16 17 17 17 17 16 16 16 16 16 15 15 15 15
19 19 19 18 18 18 16 16 16 16 15 15 15 15 14 14 13 13 13 13 13 13 13 13 13 13 14 14 15 15 15 16 16 16 16 16 15 15 15 15 15 14 14 14

GEFSCGP_850_meantemp_156.txt.gz
Temperature
24 21 21 21 22 23 24 24 24 25 27 26 25 25 25 25 25 24 24 23 22 22 22 22 22 21 21 20 20 20 19 19 19 18 18 18 18 18 18 18 18 18 18 18
22 21 23 24 24 25 25 24 24 25 26 27 25 25 25 25 25 25 24 23 22 22 22 21 21 21 21 20 20 19 19 19 19 19 18 18 18 18 18 18 18 18 18 18
21 23 25 25 25 25 25 24 24 25 26 26 25 24 24 24 24 24 24 23 22 22 22 21 21 21 20 20 20 19 19 19 19 18 18 18 18 18 18 18 18 18 18 18
22 24 26 25 25 25 24 26 27 26 25 23 24 22 23 23 23 23 22 22 22 22 22 21 21 21 20 20 20 19 19 19 18 18 18 18 18 18 18 18 18 18 18 18
22 24 25 25 26 26 25 27 27 26 24 22 22 22 22 22 22 22 22 22 22 22 22 22 21 21 21 20 20 19 19 19 18 18 18 18 18 18 18 18 18 18 18 17
24 25 26 26 27 27 27 26 25 22 21 21 22 22 21 20 21 21 21 22 22 22 22 22 21 21 20 20 19 19 19 18 18 18 18 18 18 18 18 18 18 18 17 17
23 25 26 27 26 26 26 23 21 21 20 20 21 21 21 21 22 22 21 22 22 22 21 21 21 20 20 20 19 19 19 18 18 18 18 18 18 18 18 18 18 18 17 17
22 22 25 26 26 25 24 22 21 21 21 20 21 21 21 21 22 22 22 22 22 21 21 21 21 20 20 20 19 19 19 18 18 18 18 18 18 18 18 18 18 18 18 18
21 22 26 27 27 26 25 22 21 20 20 20 20 21 21 21 21 21 21 21 21 21 21 21 21 20 20 20 19 19 19 18 18 18 18 18 18 18 18 17 17 17 17 17
22 23 25 27 27 26 25 23 20 20 20 20 21 21 20 20 20 20 20 20 20 21 21 21 21 20 20 20 19 19 19 19 19 18 18 18 18 18 17 17 17 17 17 17
23 22 23 25 25 25 25 23 20 18 19 20 20 20 21 20 19 19 19 20 20 21 21 21 20 20 20 20 19 19 19 19 18 18 18 18 18 18 17 17 17 17 17 17
22 20 21 23 24 25 24 23 20 20 20 19 19 19 21 20 19 19 19 20 21 21 21 21 21 20 20 20 19 19 19 18 18 18 18 18 17 17 17 17 17 17 17 17
22 20 21 22 22 23 24 23 21 19 18 18 19 20 20 19 19 19 20 20 21 21 20 20 20 20 20 20 19 19 19 19 18 18 18 17 17 17 17 17 17 17 17 17
22 19 20 21 21 22 23 23 22 20 19 19 20 20 19 19 18 18 20 20 21 20 20 20 20 20 20 20 19 19 19 19 18 18 18 17 17 17 17 17 17 17 17 17
20 20 21 21 23 23 23 23 23 22 20 20 19 19 19 18 18 19 19 20 20 20 19 20 20 20 19 19 19 19 19 19 18 18 18 17 17 17 17 17 17 17 17 17
18 19 20 21 23 23 22 23 23 22 21 20 20 19 19 18 18 18 19 19 19 19 19 19 19 19 19 19 19 19 19 18 18 18 18 18 17 17 17 17 17 17 17 17
17 18 18 19 21 22 20 21 21 21 20 20 19 18 18 17 17 17 18 19 19 19 19 19 19 19 19 19 19 19 19 18 18 18 18 18 18 17 17 17 17 17 17 17
17 17 16 17 20 20 19 20 21 20 19 19 18 17 17 17 17 18 18 18 18 18 18 18 19 19 19 19 19 19 19 18 18 18 18 18 18 18 17 17 17 17 17 17
16 17 16 16 18 19 20 20 20 19 17 18 17 17 17 17 17 17 18 18 18 18 18 18 18 18 18 18 18 18 18 18 18 18 18 18 18 17 17 17 17 17 17 17
16 16 16 16 18 18 18 19 20 19 17 17 17 16 16 17 16 15 16 17 17 17 17 17 18 18 18 18 18 18 18 18 18 18 18 18 17 17 17 17 17 17 17 16
16 16 16 16 17 17 17 18 19 18 16 16 16 16 16 15 15 15 16 16 16 16 17 17 17 17 17 18 18 18 18 18 18 18 18 18 17 17 17 17 17 17 17 16
15 15 15 15 16 16 16 17 16 15 15 16 16 16 15 15 15 15 15 15 16 16 16 16 16 16 17 17 17 17 17 17 17 17 18 17 17 17 17 17 17 17 16 16
14 14 14 14 14 14 15 15 15 16 15 15 15 15 15 15 14 14 14 14 14 15 15 15 16 16 16 16 16 16 17 17 17 17 17 17 17 17 17 17 16 16 16 16
14 14 13 13 13 14 14 15 15 15 15 15 15 15 15 14 14 13 13 13 13 14 14 14 15 15 15 15 15 16 16 16 17 17 17 16 17 17 16 16 16 16 16 16
14 14 13 13 13 13 13 14 14 14 14 14 14 14 14 14 13 13 13 13 13 13 13 13 14 14 14 14 15 15 15 16 16 16 16 16 16 16 16 16 15 15 15 15
13 13 13 13 13 12 12 13 13 13 13 13 13 13 13 13 13 12 12 12 12 12 12 12 12 13 13 13 14 14 14 15 15 15 15 15 15 15 15 15 15 14 15 15